User: anonymous   Login
Location: Unspecified
(0.0000°N, 0.0000°E)
Time: 21:21:56
(UTC+00:00)
Language:

STARLINK-34531 - Orbit

View from above orbital plane
View from above orbital plane
View from above satellite
View from above satellite

Ground track
Ground track

The orbit is defined by the following mean orbital elements,

1 64750U          26145.37219429 +.00000000 +00000-0 +65160-3 0 00001
2 64750  53.1598 184.7583 0001045 101.5767 258.5352 15.30211028    01
Epoch (UTC): 25 May 2026 08:55:57
Eccentricity: 0.0001045
inclination: 53.1598°
perigee height: 474 km
apogee height: 476 km
right ascension of ascending node: 184.7583°
argument of perigee: 101.5767°
revolutions per day: 15.30211028
mean anomaly at epoch: 258.5352°

The dashed part of the orbit path shows where the satellite is in the earth's shadow,  

DLR